Regional Weather Roundup
Issued by NWS

Home | Current Version | Previous Version | Text Only | Print | Product List | Glossary Off
Versions: 1 2 3 4 5 6 7 8 9 10 11 12 13 14 15 16 17 18 19 20 21 22 23 24 25 26 27 28 29 30 31 32 33 34 35 36 37 38 39 40 41 42 43 44 45 46 47 48 49 50

000
ASUS43 KLSX 222307
RWRMO

WEATHER SUMMARY FOR MISSOURI
NATIONAL WEATHER SERVICE SPRINGFIELD MO
600 PM CDT FRI SEP 22 2017

NOTE: "FAIR" INDICATES FEW OR NO CLOUDS BELOW 12,000 FEET WITH NO
       SIGNIFICANT WEATHER AND/OR OBSTRUCTIONS TO VISIBILITY.
       CURRENT SKY AND/OR WEATHER CONDITIONS ARE NOT AVAILABLE FOR
       CHILLICOTHE AND FARMINGTON.

MOZ001>031-035>038-043-044-053-054-230000-
...NORTHERN AND WESTERN MISSOURI...

CITY           SKY/WX    TMP DP  RH WIND       PRES   REMARKS
KANSAS CTY INT MOSUNNY   85  69  58 S16       29.92F
KANSAS C DTWN  SUNNY     89  68  49 S15       29.92S HX  93
LEE`S SUMMIT   SUNNY     87  69  54 S15G23    29.94F HX  91
ST JOSEPH      SUNNY     88  70  55 S13G23    29.90S HX  93
CHILLICOTHE      N/A     88  69  53 S13G20    29.94S HX  92
KIRKSVILLE     SUNNY     88  66  48 S13       29.97S HX  90

$$
MOZ066>068-077>081-088>096-101>105-230000-
...SOUTHWEST MISSOURI...

CITY           SKY/WX    TMP DP  RH WIND       PRES   REMARKS
SPRINGFIELD    SUNNY     88  66  48 SE7       29.98F HX  90
JOPLIN         SUNNY     86  69  56 S9        29.96F HX  90
BRANSON        MOSUNNY   90  63  40 S7        30.00F HX  90

$$
MOZ032>034-039>042-045>050-055>058-069>072-230000-
...CENTRAL MISSOURI...

CITY           SKY/WX    TMP DP  RH WIND       PRES   REMARKS
COLUMBIA       SUNNY     88  67  49 S5        29.98F HX  91
JEFFERSON CITY SUNNY     90  65  43 S3        29.95F HX  92
ROLLA          SUNNY     84  66  54 S3        30.01S
SEDALIA        SUNNY     88  69  53 S9        29.98S HX  92
WHITEMAN AFB   SUNNY     86  72  62 S9        29.95S HX  92
WARRENSBURG    SUNNY     86  68  54 SE9       29.95S
OSAGE BEACH    SUNNY     89  68  49 S5        29.98S HX  93

$$
MOZ051-052-059>065-230000-
...EAST CENTRAL MISSOURI...

CITY           SKY/WX    TMP DP  RH WIND       PRES   REMARKS
ST LOUIS INTL  MOSUNNY   92  60  34 SE9       29.99R HX  91
SPIRIT OF STL  MOSUNNY   91  60  35 E5        29.97S HX  90
ST CHARLES     SUNNY     93  60  33 E9        29.96S HX  93

$$
MOZ072>076-082>087-097>100-106>115-230000-
...SOUTH CENTRAL AND SOUTHEAST MISSOURI...

CITY           SKY/WX    TMP DP  RH WIND       PRES   REMARKS
CAPE GIRARDEAU MOSUNNY   88  66  48 SE7       29.97F HX  90
FARMINGTON     SUNNY     87  66  49 E5        30.01S
POPLAR BLUFF   SUNNY     91  64  40 CALM      29.97S HX  92
WEST PLAINS    MOSUNNY   89  61  38 S6        30.02S

$$



USA.gov is the U.S. government's official web portal to all federal, state and local government web resources and services.